KLM2678 EDDF-EHAM

Flight info

Callsign KLM2678
Flight time N/A
Altitude 24000
Route MARUN3W/25C MARUN Y152 ARPEG Z850 ABILU DCT NORKU
Aircraft B738/M-SDE2E3FGHIRWXY/LB1

Departure

Time 2026-05-05 19:51
Airport Frankfurt Main Airport (EDDF)

Arrival

Time N/A
Airport Amsterdam Airport Schiphol (EHAM)
Time Latitude Longitude Altitude Speed Heading
2026-05-05 19:02 50.04703 8.56853 353 ft 0 kts 294°
2026-05-05 19:34 50.04702 8.56855 360 ft 2 kts 294°
2026-05-05 19:34 50.04695 8.56879 361 ft 2 kts 291°
2026-05-05 19:35 50.04684 8.56926 360 ft 2 kts 287°
2026-05-05 19:35 50.04680 8.56952 357 ft 2 kts 247°
2026-05-05 19:35 50.04685 8.56960 359 ft 0 kts 206°
2026-05-05 19:42 50.04676 8.56953 352 ft 3 kts 206°
2026-05-05 19:42 50.04645 8.56931 358 ft 7 kts 203°
2026-05-05 19:42 50.04588 8.56905 350 ft 11 kts 194°
2026-05-05 19:43 50.04502 8.56874 347 ft 15 kts 193°
2026-05-05 19:43 50.04399 8.56842 350 ft 15 kts 189°
2026-05-05 19:43 50.04300 8.56840 351 ft 14 kts 146°
2026-05-05 19:43 50.04297 8.56987 348 ft 16 kts 69°
2026-05-05 19:44 50.04340 8.57169 344 ft 19 kts 70°
2026-05-05 19:44 50.04390 8.57379 335 ft 22 kts 70°
2026-05-05 19:44 50.04445 8.57610 337 ft 23 kts 69°
2026-05-05 19:44 50.04500 8.57838 334 ft 22 kts 69°
2026-05-05 19:45 50.04552 8.58056 336 ft 22 kts 70°
2026-05-05 19:45 50.04603 8.58272 333 ft 21 kts 70°
2026-05-05 19:45 50.04652 8.58474 330 ft 16 kts 75°
2026-05-05 19:45 50.04643 8.58549 326 ft 0 kts 132°
2026-05-05 19:48 50.04641 8.58552 326 ft 3 kts 135°
2026-05-05 19:48 50.04604 8.58583 325 ft 9 kts 156°
2026-05-05 19:49 50.04542 8.58622 323 ft 10 kts 159°
2026-05-05 19:49 50.04499 8.58621 328 ft 10 kts 218°
2026-05-05 19:49 50.04493 8.58607 325 ft 0 kts 249°
2026-05-05 19:50 50.04489 8.58588 327 ft 12 kts 249°
2026-05-05 19:50 50.04358 8.58044 331 ft 94 kts 249°
2026-05-05 19:51 50.04041 8.56730 354 ft 163 kts 248°
2026-05-05 19:51 50.03627 8.54869 741 ft 196 kts 250°
2026-05-05 19:51 50.03177 8.52754 1481 ft 211 kts 250°
2026-05-05 19:51 50.02599 8.50745 2644 ft 197 kts 238°
2026-05-05 19:52 50.01728 8.49166 3557 ft 189 kts 220°
2026-05-05 19:52 50.00629 8.48152 4357 ft 182 kts 202°
2026-05-05 19:52 49.99398 8.47772 5065 ft 180 kts 184°
2026-05-05 19:52 49.98140 8.47941 5582 ft 188 kts 184°
2026-05-05 19:53 49.96799 8.47574 5770 ft 202 kts 195°
2026-05-05 19:53 49.95403 8.47002 5988 ft 215 kts 200°
2026-05-05 19:53 49.93925 8.46255 6132 ft 232 kts 200°
2026-05-05 19:53 49.92383 8.45336 6387 ft 241 kts 213°
2026-05-05 19:54 49.91179 8.43528 6834 ft 243 kts 237°
2026-05-05 19:54 49.90623 8.41111 7440 ft 244 kts 265°
2026-05-05 19:54 49.90846 8.38510 8094 ft 248 kts 291°
2026-05-05 19:54 49.91883 8.36306 8692 ft 256 kts 317°
2026-05-05 19:55 49.93479 8.34990 9249 ft 268 kts 336°
2026-05-05 19:55 49.95276 8.33893 9492 ft 285 kts 334°
2026-05-05 19:55 49.97107 8.32708 9978 ft 292 kts 334°
2026-05-05 19:55 49.99038 8.31448 10164 ft 311 kts 334°
2026-05-05 19:56 50.01094 8.30103 10319 ft 330 kts 334°
2026-05-05 19:56 50.03282 8.28724 10457 ft 350 kts 340°
2026-05-05 19:56 50.05769 8.28331 10565 ft 374 kts
2026-05-05 19:56 50.08336 8.29404 10783 ft 389 kts 17°
2026-05-05 19:57 50.10922 8.30800 11205 ft 395 kts 18°
2026-05-05 19:57 50.12646 8.31748 11574 ft 397 kts 18°
2026-05-05 19:57 50.16152 8.33660 12312 ft 401 kts 17°
2026-05-05 19:57 50.18806 8.35081 12864 ft 404 kts 17°
2026-05-05 19:58 50.21475 8.36494 13428 ft 408 kts 17°
2026-05-05 19:58 50.24177 8.37916 13954 ft 411 kts 17°
2026-05-05 19:58 50.26906 8.39351 14478 ft 414 kts 17°
2026-05-05 19:58 50.29617 8.40781 15015 ft 417 kts 17°
2026-05-05 19:59 50.32378 8.42269 15543 ft 421 kts 18°
2026-05-05 19:59 50.35155 8.43787 16065 ft 424 kts 19°
2026-05-05 19:59 50.37949 8.45320 16603 ft 426 kts 19°
2026-05-05 19:59 50.40769 8.46868 17103 ft 430 kts 19°
2026-05-05 20:00 50.43606 8.48423 17588 ft 434 kts 19°
2026-05-05 20:00 50.46436 8.49973 18047 ft 438 kts 19°
2026-05-05 20:00 50.49331 8.51517 18485 ft 440 kts 18°
2026-05-05 20:00 50.52268 8.52939 18976 ft 442 kts 17°
2026-05-05 20:01 50.55218 8.54310 19440 ft 443 kts 17°
2026-05-05 20:01 50.58182 8.55687 19896 ft 445 kts 18°
2026-05-05 20:01 50.61156 8.57087 20307 ft 447 kts 18°
2026-05-05 20:01 50.64149 8.58515 20702 ft 450 kts 18°
2026-05-05 20:02 50.67153 8.59960 21099 ft 452 kts 18°
2026-05-05 20:02 50.70171 8.61416 21499 ft 455 kts 18°
2026-05-05 20:02 50.73170 8.62864 21881 ft 457 kts 18°
2026-05-05 20:02 50.76219 8.64338 22255 ft 459 kts 18°
2026-05-05 20:03 50.79281 8.65819 22632 ft 461 kts 19°
2026-05-05 20:03 50.82357 8.67309 22970 ft 464 kts 19°
2026-05-05 20:03 50.85462 8.68815 23250 ft 468 kts 19°
2026-05-05 20:03 50.88591 8.70334 23531 ft 471 kts 19°
2026-05-05 20:04 50.91734 8.71859 23786 ft 471 kts 19°
2026-05-05 20:04 50.94865 8.73375 24041 ft 470 kts 19°
2026-05-05 20:04 50.97994 8.74888 24280 ft 471 kts 19°
2026-05-05 20:04 51.00075 8.75893 24323 ft 473 kts 19°